Flag for Germany Weather past 2 weeks in Wolfenbüttel, Lower Saxony, Germany

Now
52 °F

Clear.


Feels Like: 49 °F
Forecast: 46 / 53 °F
Wind: 8 mph from Southeast

Location: Braunschweig

Current Time: Oct 24, 2014 at 11:40:17 PM

Latest Report: Oct 24, 2014 at 9:50 PM


Visibility: 10 mi

Pressure: 30.12 "Hg

Humidity: 77%

Dew point: 45 °F

Location of WolfenbüttelLocation

Historic Weather in Wolfenbüttel — Graph

°F

Wolfenbüttel temperature yesterday

Maximum temperature yesterday: 55 °F (at 1:50 PM)
Minimum temperature yesterday: 45 °F (at 8:20 AM)
Average temperature yesterday: 51 °F

Past Weeks' High & Low Weather Summary

 TemperatureHumidityPressure
High72 °F (Oct 19, 3:50 PM)100% (Oct 9, 9:20 PM)30.21 "Hg (Oct 9, 9:20 PM)
Low45 °F (Oct 23, 8:20 AM)52% (Oct 14, 2:20 PM)29.45 "Hg (Oct 21, 6:20 PM)
Average56 °F87%29.87 "Hg
* Reported Oct 9 9:20 PM — Oct 24 9:50 PM, Wolfenbüttel, Weather by CustomWeather, © 2014

Note: Actual official high and low records may vary slightly from our data, if they occured in-between our weather recording intervals... More about our weather records

Advertising

Wolfenbüttel weather history for previous 24 hours

 ConditionsComfort  
Time TempWeatherWind HumidityBarometerVisibility
9:50 PM
Oct 24
52 °FClear.8 mph77%30.12 "Hg10 mi
9:20 PM52 °FClear.9 mph77%30.12 "Hg10 mi
8:50 PM50 °FClear.9 mph82%30.12 "Hg10 mi
8:20 PM50 °FClear.8 mph88%30.09 "Hg10 mi
7:50 PM50 °FClear.7 mph82%30.09 "Hg10 mi
7:20 PM50 °FClear.7 mph82%30.12 "Hg10 mi
6:50 PM52 °FSunny.7 mph82%30.12 "Hg10 mi
6:20 PM52 °FSunny.5 mph82%30.12 "Hg10 mi
5:50 PM54 °FSunny.5 mph72%30.12 "Hg10 mi
5:20 PM55 °FSunny.7 mph67%30.12 "Hg10 mi
4:50 PM59 °FPassing clouds.9 mph59%30.12 "HgN/A
4:20 PM57 °FSunny.10 mph59%30.12 "Hg10 mi
3:50 PM59 °FPassing clouds.10 mph63%30.12 "HgN/A
3:20 PM57 °FPassing clouds.8 mph72%30.15 "HgN/A
2:50 PM59 °FScattered clouds.7 mph63%30.15 "HgN/A
2:20 PM59 °FScattered clouds.8 mph63%30.15 "HgN/A
1:50 PM59 °FPassing clouds.6 mph72%30.15 "HgN/A
1:20 PM57 °FPassing clouds.7 mph72%30.18 "HgN/A
12:50 PM54 °FPartly sunny.6 mph82%30.18 "HgN/A
12:20 PM54 °FOvercast.6 mph82%30.18 "HgN/A
11:50 AM52 °FOvercast.7 mph88%30.18 "HgN/A
11:20 AM52 °FOvercast.6 mph88%30.21 "HgN/A
10:50 AM52 °FOvercast.6 mph88%30.21 "HgN/A
10:20 AM50 °FOvercast.6 mph88%30.21 "HgN/A
9:50 AM50 °FPartly sunny.5 mph88%30.18 "HgN/A
9:20 AM50 °FPartly sunny.6 mph88%30.18 "HgN/A
8:50 AM50 °FPassing clouds.6 mph88%30.18 "HgN/A
8:20 AM50 °FPassing clouds.5 mph88%30.18 "HgN/A
7:50 AM48 °FOvercast.6 mph94%30.18 "HgN/A
7:20 AM48 °FOvercast.6 mph94%30.18 "HgN/A
6:50 AM48 °FOvercast.6 mph94%30.18 "HgN/A
5:20 AM48 °FPassing clouds.8 mph94%30.18 "HgN/A
2:50 AM48 °FPassing clouds.5 mph94%30.21 "HgN/A
2:20 AM46 °FPassing clouds.7 mph93%30.21 "HgN/A
1:50 AM48 °FPassing clouds.6 mph94%30.21 "HgN/A
Weather by CustomWeather, © 2014

See weather overviewHow to use our weather pages